Terminal Aerodrome Forecast
Issued by NWS Portland, OR

Home | Current Version | Previous Version | Text Only | Print | Product List | Glossary On
Versions: 1 2 3 4 5 6 7 8 9 10 11 12 13 14 15 16 17 18 19 20 21 22 23 24 25 26 27 28 29 30 31 32 33 34 35 36 37 38 39 40 41 42 43 44 45 46 47 48 49 50
565
FTUS46 KPQR 042326
TAFPDX
TAF
KPDX 042326Z 0500/0524 34009KT P6SM VCSH SCT025 SCT080 BKN120
     FM050300 31009KT P6SM VCSH SCT030 BKN045 OVC070
     FM051000 32006KT P6SM BKN025 OVC035
     FM051900 31009KT P6SM FEW030 SCT060 BKN120=

USA.gov is the U.S. government's official web portal to all federal, state and local government web resources and services.